THOR ABLESTAR DEB, 15783

Orbit data source: Space-Track

THOR ABLESTAR DEB, 15783 is space debris in LEO originally from a launch on Thu, 29 Jun 1961 UTC launched from the Air Force Eastern Test Range (AFETR). Debris objects in space refer to the collection of defunct objects orbiting the Earth. Examples of debris include non-operational satellites, rocket bodies, and fragments generated from explosions, collisions, or faulty payload assembly.

Loading next visibility...
Identifier
15783, 1961-015LG
Orbit
LEO
Country
Flag of USUS
Related business
Manufacturer
Unknown
Mission
Spacecraft
Bus & Motor
Unknown
Mass
Unknown
Launch date (UTC)
1961-06-29 (65 years ago)
Launch vehicle
Unknown
Launch site
Air Force Eastern Test Range (AFETR)
Object type
Payload
Rocket body
Debris
Shape & HBR
Unknown shape, 0.1 m
Radar Cross Section
Medium (>0.1 m² and <1 m²)

Expand to show TLE details & history
Last TLE update: 3 days ago

TLE from 3 days ago
0 THOR ABLESTAR DEB
1 15783U 61015LG  26171.04712926  .00004862  00000-0  59130-3 0  9996
2 15783  67.0370  38.1149 0040778 228.8296 279.7235 14.83766872183243
Epoch: 2026-06-20T01:07Z
TLE epoch observation values (Epoch: 2026-06-20T01:07:51.968Z)
Latitude
29.18649°
Longitude
-80.73349°
Altitude
615.624 km
Speed
7.557 km/s
True Right ascension
13h 38m 00s
True Declination
29° 02' 14"
Sunlit
Object was in daylight at epoch
Visualization orbit readout
Latitude
Unknown
Longitude
Unknown
Altitude
Unknown
Speed
Unknown
Apparent Right ascension
Unknown
Apparent Declination
Unknown
Sunlit
N/A
Visualization observer readout
Local Sidereal Time
05:36:54
Azimuth
Unknown
Elevation
Unknown
Doppler factor
Unknown
Orbital elements
Apogee altitude
644.273 km
Perigee altitude
587.234 km
Semi-major axis
6,993.89 km
Eccentricity
0.00408
Inclination
67.037°
RAAN
38.1149°
Arg. of periapsis
228.8296°
True anomaly
279.26254°
Mean anomaly
279.7235°
Eccentric anomaly
279.49306°
Mean motion
3.71078 °/min
Orbital period
97.01 mins
BSTAR
0.0005913
Loading maneuver chart data...
Computing Atmospheric mass density...

Documentation

Showing up to 5 results
|